GFSNW_prec_precacc12_237.txt.gz
Total_Precipitation_Accumulation
0.00 0.00 0.00 0.00 0.00 0.02 0.23 0.49 0.28 0.17 0.24 0.45 0.41 0.19 0.00 0.00 0.00 0.00 0.00 0.00 0.00 0.00 0.00 0.00 0.05 0.01 0.04 0.04 0.04 0.06 0.07 0.05 0.03 0.06 0.03 0.01 0.00 0.00 0.00 0.06 0.07 0.05 0.06 0.03
0.01 0.01 0.01 0.00 0.00 0.02 0.16 0.42 0.30 0.42 0.22 0.32 0.18 0.02 0.00 0.00 0.00 0.00 0.00 0.00 0.00 0.00 0.01 0.03 0.02 0.05 0.07 0.06 0.04 0.04 0.04 0.06 0.03 0.02 0.01 0.00 0.00 0.00 0.00 0.02 0.09 0.11 0.07 0.03
0.02 0.01 0.02 0.02 0.01 0.01 0.16 0.33 0.36 0.78 0.70 0.13 0.03 0.01 0.01 0.00 0.00 0.00 0.00 0.00 0.01 0.02 0.03 0.02 0.04 0.04 0.06 0.05 0.07 0.06 0.05 0.04 0.05 0.04 0.01 0.03 0.07 0.02 0.01 0.04 0.13 0.04 0.01 0.00
0.02 0.03 0.03 0.04 0.01 0.03 0.29 0.54 0.32 0.27 0.48 0.17 0.03 0.01 0.01 0.00 0.00 0.00 0.00 0.00 0.03 0.04 0.04 0.01 0.04 0.05 0.04 0.04 0.03 0.05 0.09 0.12 0.10 0.04 0.00 0.01 0.00 0.00 0.01 0.03 0.03 0.03 0.01 0.00
0.04 0.06 0.06 0.07 0.04 0.08 0.48 0.57 0.39 0.12 0.05 0.02 0.04 0.04 0.01 0.00 0.00 0.00 0.00 0.00 0.01 0.02 0.04 0.06 0.06 0.06 0.08 0.11 0.08 0.10 0.12 0.12 0.05 0.01 0.00 0.00 0.00 0.00 0.00 0.00 0.00 0.00 0.00 0.00
0.04 0.06 0.07 0.08 0.09 0.15 0.36 0.56 0.39 0.13 0.06 0.04 0.06 0.02 0.01 0.01 0.02 0.00 0.00 0.00 0.02 0.03 0.02 0.04 0.08 0.08 0.06 0.06 0.04 0.02 0.02 0.02 0.05 0.04 0.01 0.01 0.02 0.00 0.00 0.00 0.00 0.00 0.00 0.00
0.07 0.08 0.09 0.07 0.04 0.09 0.25 0.28 0.38 0.45 0.21 0.06 0.03 0.01 0.02 0.01 0.02 0.02 0.01 0.02 0.02 0.01 0.02 0.03 0.03 0.03 0.02 0.01 0.02 0.03 0.03 0.04 0.15 0.14 0.08 0.11 0.01 0.00 0.00 0.00 0.00 0.00 0.00 0.00
0.08 0.09 0.11 0.09 0.03 0.08 0.27 0.24 0.27 0.43 0.33 0.14 0.03 0.01 0.01 0.03 0.04 0.05 0.06 0.05 0.03 0.03 0.05 0.06 0.07 0.05 0.03 0.01 0.01 0.01 0.01 0.05 0.24 0.33 0.20 0.04 0.00 0.00 0.00 0.00 0.00 0.00 0.00 0.00
0.08 0.08 0.10 0.09 0.06 0.13 0.16 0.32 0.35 0.38 0.36 0.16 0.10 0.08 0.03 0.02 0.03 0.05 0.06 0.06 0.02 0.01 0.04 0.10 0.15 0.09 0.04 0.04 0.01 0.01 0.01 0.04 0.21 0.35 0.29 0.07 0.00 0.00 0.00 0.00 0.00 0.00 0.00 0.00
0.07 0.10 0.08 0.09 0.07 0.13 0.13 0.21 0.38 0.47 0.52 0.22 0.05 0.13 0.12 0.04 0.04 0.05 0.05 0.02 0.03 0.06 0.13 0.18 0.15 0.08 0.03 0.04 0.02 0.02 0.02 0.05 0.15 0.19 0.43 0.14 0.00 0.00 0.00 0.02 0.01 0.00 0.00 0.00
0.09 0.10 0.09 0.09 0.08 0.12 0.17 0.17 0.40 0.53 0.53 0.32 0.14 0.07 0.09 0.09 0.12 0.18 0.12 0.05 0.09 0.12 0.20 0.28 0.23 0.12 0.05 0.01 0.00 0.02 0.09 0.13 0.15 0.18 0.42 0.16 0.00 0.00 0.00 0.00 0.00 0.00 0.00 0.00
0.13 0.12 0.10 0.09 0.09 0.12 0.25 0.27 0.28 0.64 0.62 0.46 0.18 0.12 0.07 0.07 0.08 0.12 0.15 0.15 0.12 0.10 0.18 0.23 0.16 0.18 0.12 0.03 0.05 0.01 0.15 0.11 0.07 0.13 0.08 0.00 0.00 0.00 0.00 0.00 0.00 0.00 0.00 0.00
0.13 0.12 0.12 0.10 0.08 0.12 0.31 0.32 0.16 0.43 0.79 0.47 0.27 0.21 0.12 0.09 0.11 0.16 0.19 0.14 0.11 0.20 0.24 0.30 0.42 0.36 0.17 0.12 0.10 0.04 0.09 0.08 0.16 0.11 0.08 0.01 0.01 0.01 0.00 0.00 0.00 0.00 0.00 0.00
0.14 0.13 0.15 0.12 0.10 0.15 0.38 0.35 0.17 0.27 0.47 0.38 0.26 0.21 0.23 0.16 0.14 0.15 0.14 0.13 0.19 0.34 0.48 0.63 0.69 0.38 0.16 0.16 0.12 0.11 0.11 0.15 0.18 0.15 0.05 0.02 0.01 0.00 0.00 0.00 0.00 0.00 0.00 0.00
0.14 0.14 0.19 0.18 0.19 0.34 0.50 0.30 0.18 0.24 0.29 0.30 0.17 0.15 0.20 0.22 0.22 0.26 0.30 0.30 0.40 0.55 0.68 0.77 0.54 0.29 0.22 0.25 0.19 0.13 0.03 0.03 0.06 0.05 0.01 0.02 0.01 0.00 0.00 0.00 0.00 0.00 0.00 0.00
0.17 0.18 0.28 0.28 0.28 0.55 0.60 0.68 0.52 0.34 0.28 0.33 0.26 0.27 0.32 0.32 0.31 0.37 0.45 0.46 0.45 0.46 0.47 0.42 0.29 0.15 0.13 0.29 0.18 0.02 0.00 0.00 0.00 0.00 0.00 0.00 0.00 0.00 0.00 0.00 0.00 0.00 0.00 0.00
0.23 0.23 0.32 0.37 0.41 0.62 0.68 0.66 0.43 0.35 0.32 0.39 0.31 0.24 0.20 0.24 0.31 0.36 0.35 0.31 0.33 0.36 0.35 0.28 0.17 0.10 0.15 0.23 0.08 0.00 0.00 0.00 0.00 0.00 0.00 0.00 0.00 0.00 0.00 0.00 0.00 0.00 0.00 0.00
0.40 0.50 0.63 0.72 0.83 0.96 0.71 0.26 0.06 0.14 0.38 0.50 0.33 0.22 0.12 0.16 0.23 0.25 0.24 0.22 0.21 0.23 0.22 0.18 0.12 0.15 0.14 0.09 0.01 0.00 0.00 0.01 0.00 0.00 0.00 0.00 0.00 0.00 0.00 0.00 0.00 0.00 0.01 0.01
0.42 0.61 0.77 1.14 1.15 1.05 0.59 0.30 0.31 0.26 0.48 0.48 0.21 0.06 0.03 0.04 0.12 0.16 0.17 0.16 0.17 0.17 0.15 0.07 0.05 0.11 0.06 0.01 0.00 0.01 0.01 0.01 0.00 0.00 0.00 0.00 0.00 0.00 0.00 0.00 0.01 0.02 0.02 0.03
0.66 1.20 1.65 1.90 1.27 0.47 0.38 0.49 0.77 0.75 0.53 0.26 0.09 0.00 0.02 0.04 0.08 0.15 0.12 0.11 0.10 0.11 0.04 0.02 0.03 0.02 0.00 0.00 0.00 0.01 0.00 0.00 0.00 0.00 0.01 0.00 0.01 0.00 0.00 0.01 0.02 0.03 0.06 0.06
1.14 1.47 1.22 1.07 0.72 0.51 0.78 0.97 1.13 1.02 0.58 0.21 0.05 0.00 0.06 0.08 0.08 0.11 0.11 0.08 0.07 0.07 0.02 0.01 0.01 0.00 0.00 0.00 0.01 0.00 0.00 0.00 0.00 0.00 0.00 0.00 0.00 0.01 0.02 0.02 0.03 0.04 0.03 0.04
0.50 0.37 0.57 0.62 0.58 0.81 0.88 0.60 0.32 0.34 0.15 0.04 0.00 0.03 0.06 0.12 0.09 0.12 0.10 0.06 0.04 0.04 0.00 0.01 0.01 0.00 0.00 0.00 0.00 0.00 0.00 0.00 0.00 0.00 0.00 0.00 0.00 0.00 0.01 0.01 0.01 0.01 0.00 0.01
0.20 0.28 0.33 0.41 0.56 0.49 0.28 0.18 0.05 0.04 0.05 0.01 0.00 0.05 0.08 0.09 0.07 0.06 0.03 0.04 0.03 0.01 0.00 0.00 0.01 0.00 0.00 0.00 0.00 0.00 0.00 0.00 0.00 0.00 0.00 0.00 0.00 0.00 0.00 0.00 0.00 0.00 0.00 0.00
0.39 0.38 0.27 0.23 0.12 0.06 0.01 0.00 0.00 0.00 0.00 0.00 0.00 0.00 0.02 0.03 0.03 0.02 0.01 0.01 0.01 0.01 0.00 0.00 0.01 0.00 0.00 0.00 0.00 0.00 0.00 0.00 0.00 0.00 0.00 0.00 0.00 0.00 0.00 0.00 0.00 0.00 0.00 0.00
0.16 0.08 0.05 0.02 0.01 0.00 0.00 0.00 0.00 0.00 0.00 0.00 0.01 0.03 0.03 0.02 0.03 0.01 0.00 0.01 0.00 0.00 0.00 0.01 0.01 0.00 0.00 0.00 0.00 0.00 0.00 0.00 0.00 0.00 0.00 0.00 0.00 0.00 0.00 0.00 0.00 0.00 0.00 0.00
0.02 0.03 0.02 0.01 0.01 0.01 0.01 0.00 0.00 0.00 0.00 0.01 0.04 0.09 0.09 0.07 0.03 0.01 0.00 0.00 0.00 0.00 0.00 0.00 0.00 0.00 0.00 0.00 0.00 0.00 0.00 0.00 0.00 0.00 0.00 0.00 0.00 0.00 0.00 0.00 0.00 0.00 0.00 0.00
0.07 0.02 0.01 0.01 0.01 0.01 0.00 0.00 0.00 0.00 0.00 0.02 0.07 0.07 0.03 0.00 0.00 0.00 0.00 0.00 0.00 0.00 0.00 0.00 0.00 0.00 0.00 0.00 0.00 0.00 0.00 0.00 0.00 0.00 0.00 0.00 0.00 0.00 0.00 0.00 0.00 0.00 0.00 0.00

GFSNW_prec_precacc12_243.txt.gz
Total_Precipitation_Accumulation
0.00 0.00 0.00 0.01 0.00 0.00 0.01 0.01 0.07 0.05 0.13 0.29 0.13 0.04 0.00 0.00 0.00 0.00 0.00 0.00 0.00 0.00 0.00 0.00 0.01 0.01 0.02 0.03 0.04 0.06 0.08 0.06 0.04 0.06 0.04 0.03 0.03 0.07 0.07 0.08 0.05 0.03 0.05 0.03
0.01 0.01 0.02 0.02 0.03 0.00 0.00 0.00 0.02 0.14 0.14 0.14 0.06 0.01 0.01 0.00 0.00 0.00 0.00 0.00 0.00 0.00 0.00 0.02 0.01 0.03 0.03 0.04 0.03 0.04 0.06 0.08 0.08 0.08 0.03 0.02 0.03 0.02 0.02 0.02 0.03 0.02 0.05 0.02
0.02 0.01 0.02 0.04 0.04 0.00 0.00 0.00 0.01 0.21 0.32 0.04 0.04 0.03 0.01 0.02 0.00 0.00 0.00 0.00 0.00 0.00 0.00 0.01 0.02 0.02 0.03 0.03 0.06 0.05 0.06 0.07 0.08 0.08 0.04 0.05 0.09 0.08 0.06 0.09 0.11 0.03 0.01 0.00
0.03 0.03 0.04 0.06 0.06 0.02 0.01 0.01 0.00 0.02 0.13 0.07 0.03 0.04 0.02 0.01 0.01 0.00 0.00 0.00 0.00 0.00 0.00 0.00 0.01 0.03 0.03 0.03 0.03 0.05 0.09 0.12 0.10 0.09 0.09 0.11 0.09 0.03 0.01 0.01 0.00 0.01 0.00 0.00
0.04 0.06 0.07 0.11 0.10 0.08 0.04 0.00 0.00 0.00 0.01 0.02 0.03 0.03 0.03 0.01 0.01 0.00 0.00 0.00 0.00 0.00 0.00 0.01 0.02 0.02 0.03 0.05 0.07 0.09 0.12 0.10 0.04 0.01 0.00 0.01 0.02 0.00 0.00 0.00 0.00 0.00 0.00 0.00
0.02 0.05 0.07 0.10 0.12 0.11 0.04 0.00 0.00 0.00 0.00 0.02 0.03 0.01 0.01 0.01 0.00 0.00 0.00 0.00 0.00 0.00 0.01 0.02 0.06 0.06 0.04 0.04 0.02 0.02 0.02 0.01 0.01 0.01 0.00 0.00 0.00 0.00 0.00 0.00 0.00 0.00 0.00 0.00
0.04 0.05 0.06 0.07 0.06 0.05 0.00 0.00 0.00 0.01 0.00 0.00 0.01 0.01 0.01 0.00 0.00 0.00 0.00 0.00 0.00 0.00 0.01 0.02 0.02 0.02 0.01 0.01 0.01 0.01 0.02 0.01 0.02 0.04 0.02 0.06 0.01 0.00 0.00 0.00 0.00 0.00 0.00 0.00
0.04 0.05 0.07 0.06 0.04 0.12 0.01 0.00 0.00 0.01 0.00 0.00 0.00 0.01 0.01 0.01 0.01 0.00 0.00 0.00 0.00 0.01 0.03 0.04 0.05 0.03 0.01 0.01 0.01 0.00 0.01 0.02 0.06 0.11 0.09 0.03 0.00 0.00 0.00 0.00 0.00 0.00 0.00 0.00
0.05 0.05 0.06 0.07 0.06 0.18 0.09 0.01 0.01 0.01 0.03 0.00 0.00 0.02 0.02 0.00 0.01 0.01 0.01 0.00 0.00 0.00 0.02 0.05 0.08 0.04 0.01 0.00 0.00 0.00 0.00 0.01 0.05 0.09 0.14 0.05 0.00 0.00 0.00 0.00 0.00 0.00 0.00 0.00
0.04 0.05 0.05 0.06 0.06 0.16 0.19 0.06 0.01 0.01 0.02 0.01 0.00 0.02 0.02 0.01 0.02 0.02 0.00 0.00 0.01 0.04 0.07 0.10 0.07 0.03 0.01 0.01 0.00 0.00 0.00 0.02 0.04 0.06 0.21 0.10 0.00 0.00 0.00 0.04 0.03 0.00 0.00 0.00
0.04 0.05 0.05 0.07 0.07 0.15 0.23 0.19 0.02 0.01 0.00 0.01 0.00 0.01 0.01 0.03 0.05 0.13 0.09 0.04 0.03 0.04 0.10 0.15 0.12 0.04 0.01 0.00 0.00 0.00 0.03 0.08 0.09 0.11 0.27 0.11 0.00 0.00 0.00 0.01 0.00 0.00 0.00 0.00
0.07 0.06 0.06 0.07 0.08 0.14 0.25 0.28 0.09 0.02 0.02 0.00 0.00 0.01 0.02 0.00 0.02 0.08 0.13 0.12 0.06 0.02 0.03 0.05 0.03 0.04 0.04 0.02 0.01 0.01 0.09 0.08 0.04 0.16 0.10 0.01 0.02 0.02 0.02 0.00 0.00 0.00 0.00 0.01
0.08 0.07 0.07 0.07 0.08 0.14 0.26 0.24 0.14 0.08 0.09 0.06 0.00 0.00 0.00 0.01 0.01 0.05 0.10 0.08 0.06 0.08 0.09 0.14 0.23 0.22 0.11 0.06 0.06 0.03 0.07 0.08 0.20 0.18 0.16 0.07 0.08 0.05 0.01 0.01 0.01 0.02 0.02 0.01
0.10 0.08 0.10 0.09 0.08 0.13 0.29 0.35 0.20 0.12 0.16 0.09 0.03 0.00 0.00 0.01 0.01 0.02 0.03 0.03 0.03 0.07 0.17 0.30 0.39 0.29 0.17 0.14 0.10 0.10 0.10 0.17 0.28 0.31 0.15 0.15 0.08 0.01 0.01 0.01 0.01 0.00 0.00 0.00
0.09 0.10 0.11 0.12 0.11 0.20 0.42 0.39 0.19 0.10 0.08 0.06 0.01 0.00 0.00 0.00 0.00 0.03 0.07 0.07 0.10 0.16 0.28 0.42 0.35 0.22 0.18 0.22 0.18 0.13 0.04 0.05 0.16 0.16 0.03 0.06 0.05 0.01 0.00 0.00 0.00 0.00 0.00 0.00
0.09 0.11 0.13 0.14 0.17 0.44 0.70 1.07 0.55 0.10 0.03 0.03 0.05 0.02 0.00 0.00 0.00 0.03 0.09 0.13 0.17 0.20 0.25 0.24 0.21 0.13 0.11 0.25 0.17 0.03 0.00 0.00 0.00 0.01 0.01 0.03 0.04 0.01 0.00 0.00 0.00 0.00 0.00 0.00
0.13 0.11 0.17 0.21 0.29 0.59 0.82 0.77 0.37 0.07 0.02 0.18 0.24 0.09 0.02 0.01 0.02 0.04 0.06 0.08 0.15 0.21 0.26 0.25 0.18 0.12 0.18 0.26 0.09 0.00 0.00 0.00 0.00 0.00 0.01 0.05 0.03 0.02 0.00 0.00 0.00 0.00 0.00 0.00
0.20 0.18 0.24 0.33 0.56 0.74 0.73 0.18 0.01 0.00 0.09 0.34 0.25 0.10 0.02 0.01 0.02 0.05 0.09 0.12 0.15 0.19 0.20 0.18 0.12 0.15 0.16 0.12 0.01 0.00 0.00 0.01 0.01 0.00 0.00 0.00 0.02 0.01 0.00 0.00 0.00 0.00 0.00 0.00
0.31 0.30 0.46 0.99 1.27 1.37 0.72 0.16 0.07 0.01 0.19 0.29 0.11 0.02 0.00 0.00 0.02 0.05 0.08 0.11 0.13 0.16 0.14 0.07 0.06 0.12 0.07 0.01 0.00 0.01 0.01 0.01 0.00 0.00 0.00 0.00 0.00 0.00 0.00 0.00 0.00 0.00 0.00 0.00
0.56 0.97 1.94 2.67 1.83 0.58 0.31 0.60 0.86 0.79 0.49 0.12 0.02 0.00 0.01 0.00 0.01 0.04 0.07 0.09 0.09 0.11 0.04 0.02 0.05 0.02 0.00 0.00 0.00 0.01 0.00 0.00 0.00 0.00 0.00 0.00 0.00 0.00 0.00 0.00 0.00 0.00 0.00 0.00
1.58 2.18 1.71 1.19 0.58 0.28 0.58 1.24 1.43 1.26 0.70 0.17 0.01 0.00 0.00 0.01 0.02 0.06 0.09 0.09 0.09 0.09 0.02 0.01 0.03 0.00 0.00 0.00 0.01 0.00 0.00 0.00 0.00 0.00 0.00 0.00 0.00 0.00 0.00 0.00 0.00 0.00 0.00 0.00
1.01 0.64 0.95 0.85 0.45 0.82 1.08 0.81 0.63 0.47 0.17 0.03 0.00 0.00 0.01 0.05 0.06 0.10 0.10 0.07 0.06 0.05 0.02 0.06 0.01 0.00 0.00 0.00 0.00 0.00 0.00 0.00 0.00 0.00 0.00 0.00 0.00 0.00 0.00 0.00 0.00 0.00 0.00 0.00
0.18 0.33 0.80 0.54 0.72 0.65 0.53 0.36 0.21 0.06 0.06 0.02 0.00 0.01 0.04 0.07 0.07 0.06 0.03 0.04 0.04 0.02 0.03 0.02 0.00 0.00 0.01 0.00 0.00 0.00 0.00 0.00 0.00 0.00 0.00 0.00 0.00 0.00 0.00 0.00 0.00 0.00 0.00 0.00
0.47 0.60 0.46 0.27 0.17 0.13 0.03 0.01 0.00 0.00 0.00 0.00 0.00 0.00 0.02 0.03 0.03 0.02 0.01 0.01 0.02 0.05 0.01 0.00 0.00 0.01 0.00 0.00 0.00 0.00 0.00 0.00 0.00 0.00 0.00 0.00 0.00 0.00 0.00 0.00 0.00 0.00 0.00 0.00
0.25 0.11 0.06 0.03 0.01 0.00 0.00 0.00 0.00 0.00 0.00 0.00 0.01 0.03 0.03 0.02 0.03 0.01 0.00 0.02 0.02 0.00 0.00 0.01 0.01 0.01 0.00 0.00 0.00 0.00 0.00 0.00 0.00 0.00 0.00 0.00 0.00 0.00 0.00 0.00 0.00 0.00 0.00 0.00
0.04 0.01 0.01 0.00 0.00 0.00 0.00 0.00 0.00 0.00 0.00 0.01 0.04 0.10 0.09 0.07 0.03 0.02 0.00 0.00 0.00 0.00 0.00 0.00 0.00 0.00 0.00 0.00 0.00 0.00 0.00 0.00 0.00 0.00 0.00 0.00 0.00 0.00 0.00 0.00 0.00 0.00 0.00 0.00
0.03 0.00 0.00 0.00 0.00 0.00 0.00 0.00 0.00 0.00 0.00 0.02 0.07 0.08 0.04 0.01 0.01 0.00 0.00 0.00 0.00 0.00 0.00 0.00 0.00 0.00 0.00 0.00 0.00 0.00 0.00 0.00 0.00 0.00 0.00 0.00 0.00 0.00 0.00 0.00 0.00 0.00 0.00 0.00

GFSNW_prec_precacc12_249.txt.gz
Total_Precipitation_Accumulation
0.00 0.00 0.00 0.01 0.00 0.00 0.00 0.00 0.00 0.01 0.03 0.12 0.08 0.04 0.01 0.00 0.00 0.00 0.00 0.00 0.00 0.00 0.00 0.00 0.00 0.00 0.00 0.00 0.00 0.01 0.01 0.01 0.01 0.00 0.01 0.01 0.02 0.08 0.09 0.16 0.09 0.04 0.02 0.01
0.00 0.00 0.00 0.03 0.04 0.00 0.00 0.00 0.00 0.05 0.09 0.04 0.04 0.02 0.02 0.01 0.00 0.00 0.00 0.00 0.00 0.00 0.00 0.00 0.00 0.00 0.00 0.00 0.00 0.03 0.04 0.08 0.11 0.12 0.07 0.04 0.05 0.03 0.02 0.02 0.03 0.02 0.03 0.00
0.00 0.00 0.00 0.03 0.05 0.00 0.00 0.00 0.00 0.05 0.17 0.02 0.03 0.03 0.03 0.03 0.00 0.00 0.00 0.00 0.00 0.00 0.00 0.00 0.00 0.01 0.01 0.00 0.00 0.00 0.02 0.05 0.06 0.07 0.05 0.06 0.09 0.08 0.06 0.10 0.12 0.04 0.01 0.00
0.01 0.00 0.00 0.02 0.06 0.03 0.00 0.00 0.00 0.00 0.03 0.03 0.02 0.04 0.03 0.02 0.02 0.00 0.00 0.00 0.00 0.00 0.00 0.00 0.00 0.01 0.01 0.01 0.00 0.01 0.01 0.01 0.00 0.05 0.09 0.10 0.09 0.03 0.00 0.01 0.00 0.02 0.00 0.00
0.02 0.01 0.01 0.05 0.07 0.11 0.05 0.01 0.00 0.00 0.00 0.01 0.02 0.02 0.04 0.02 0.02 0.00 0.00 0.00 0.00 0.00 0.00 0.00 0.00 0.00 0.00 0.00 0.00 0.00 0.00 0.00 0.00 0.00 0.00 0.01 0.02 0.00 0.00 0.00 0.00 0.00 0.00 0.00
0.00 0.00 0.00 0.03 0.05 0.14 0.08 0.01 0.00 0.00 0.00 0.01 0.03 0.01 0.01 0.01 0.01 0.01 0.00 0.00 0.00 0.00 0.00 0.00 0.00 0.00 0.00 0.00 0.00 0.01 0.01 0.00 0.00 0.00 0.00 0.00 0.00 0.00 0.00 0.00 0.00 0.00 0.00 0.00
0.00 0.00 0.00 0.02 0.02 0.05 0.04 0.01 0.00 0.00 0.00 0.00 0.01 0.01 0.01 0.00 0.00 0.01 0.00 0.00 0.00 0.00 0.00 0.00 0.00 0.00 0.00 0.00 0.00 0.00 0.00 0.00 0.01 0.01 0.01 0.03 0.00 0.00 0.00 0.00 0.00 0.00 0.00 0.00
0.00 0.00 0.00 0.00 0.01 0.08 0.08 0.02 0.00 0.00 0.00 0.00 0.00 0.01 0.01 0.01 0.01 0.02 0.01 0.00 0.00 0.00 0.00 0.01 0.01 0.01 0.01 0.00 0.00 0.00 0.00 0.01 0.02 0.03 0.03 0.01 0.00 0.00 0.00 0.00 0.00 0.00 0.00 0.00
0.00 0.00 0.00 0.00 0.01 0.09 0.16 0.03 0.01 0.00 0.01 0.00 0.00 0.01 0.02 0.02 0.02 0.02 0.04 0.01 0.00 0.02 0.04 0.04 0.02 0.01 0.00 0.01 0.00 0.00 0.01 0.01 0.04 0.04 0.09 0.02 0.00 0.00 0.00 0.00 0.00 0.00 0.00 0.00
0.01 0.00 0.00 0.00 0.01 0.07 0.19 0.13 0.00 0.01 0.02 0.00 0.00 0.02 0.02 0.02 0.05 0.03 0.02 0.03 0.03 0.06 0.08 0.10 0.05 0.01 0.00 0.00 0.00 0.00 0.01 0.01 0.03 0.05 0.13 0.04 0.00 0.00 0.00 0.04 0.03 0.00 0.00 0.00
0.00 0.00 0.01 0.00 0.01 0.06 0.17 0.22 0.06 0.01 0.02 0.01 0.00 0.00 0.02 0.03 0.05 0.05 0.02 0.06 0.06 0.07 0.09 0.07 0.04 0.02 0.01 0.00 0.00 0.00 0.00 0.01 0.02 0.03 0.10 0.05 0.00 0.00 0.00 0.01 0.00 0.00 0.00 0.00
0.00 0.00 0.01 0.01 0.02 0.06 0.18 0.28 0.15 0.03 0.05 0.02 0.00 0.00 0.00 0.01 0.03 0.06 0.07 0.04 0.02 0.02 0.03 0.02 0.02 0.01 0.01 0.00 0.00 0.00 0.00 0.00 0.00 0.04 0.04 0.01 0.02 0.02 0.01 0.00 0.00 0.00 0.00 0.01
0.01 0.01 0.01 0.01 0.02 0.05 0.17 0.21 0.20 0.15 0.23 0.12 0.01 0.00 0.00 0.00 0.01 0.02 0.10 0.07 0.06 0.05 0.04 0.07 0.10 0.08 0.04 0.02 0.01 0.00 0.00 0.01 0.05 0.08 0.08 0.06 0.08 0.04 0.01 0.01 0.01 0.02 0.02 0.01
0.02 0.02 0.02 0.02 0.03 0.06 0.19 0.30 0.26 0.24 0.31 0.18 0.07 0.00 0.00 0.00 0.00 0.00 0.02 0.05 0.04 0.06 0.05 0.11 0.11 0.12 0.09 0.06 0.03 0.03 0.03 0.06 0.12 0.17 0.10 0.13 0.08 0.01 0.01 0.01 0.01 0.00 0.01 0.00
0.03 0.04 0.03 0.05 0.05 0.12 0.27 0.38 0.28 0.18 0.16 0.19 0.05 0.00 0.00 0.00 0.00 0.01 0.02 0.03 0.04 0.04 0.03 0.04 0.07 0.07 0.05 0.04 0.03 0.03 0.02 0.03 0.11 0.11 0.02 0.04 0.04 0.01 0.00 0.00 0.00 0.00 0.00 0.00
0.03 0.05 0.06 0.06 0.12 0.25 0.48 0.87 0.53 0.21 0.08 0.13 0.17 0.04 0.00 0.00 0.00 0.00 0.00 0.01 0.03 0.06 0.05 0.03 0.01 0.00 0.01 0.02 0.02 0.00 0.00 0.00 0.00 0.00 0.01 0.03 0.04 0.01 0.00 0.00 0.00 0.00 0.00 0.00
0.03 0.06 0.10 0.13 0.18 0.31 0.54 0.53 0.28 0.14 0.07 0.27 0.46 0.16 0.01 0.00 0.00 0.00 0.00 0.00 0.01 0.02 0.04 0.04 0.04 0.03 0.05 0.05 0.02 0.00 0.00 0.00 0.00 0.00 0.01 0.05 0.04 0.02 0.00 0.00 0.00 0.00 0.00 0.00
0.06 0.10 0.15 0.24 0.46 0.58 0.61 0.20 0.04 0.02 0.16 0.46 0.45 0.23 0.05 0.01 0.00 0.00 0.01 0.01 0.00 0.01 0.01 0.01 0.00 0.01 0.04 0.04 0.00 0.00 0.00 0.00 0.00 0.00 0.00 0.00 0.02 0.01 0.00 0.00 0.00 0.00 0.00 0.00
0.13 0.20 0.38 0.73 1.00 0.99 0.56 0.25 0.20 0.10 0.25 0.49 0.26 0.05 0.04 0.01 0.00 0.00 0.01 0.01 0.01 0.01 0.01 0.00 0.00 0.01 0.02 0.00 0.00 0.00 0.00 0.00 0.00 0.00 0.00 0.00 0.00 0.00 0.00 0.00 0.00 0.00 0.00 0.00
0.34 0.74 1.60 2.30 1.45 0.47 0.31 0.63 1.18 1.07 0.64 0.18 0.07 0.01 0.01 0.01 0.00 0.01 0.01 0.02 0.02 0.02 0.00 0.00 0.02 0.00 0.00 0.00 0.00 0.00 0.00 0.00 0.00 0.00 0.00 0.00 0.00 0.00 0.00 0.00 0.00 0.00 0.00 0.00
1.48 2.14 1.77 1.04 0.38 0.33 0.49 1.29 1.46 1.57 0.99 0.30 0.01 0.01 0.01 0.00 0.00 0.01 0.01 0.02 0.02 0.03 0.00 0.01 0.01 0.00 0.00 0.00 0.00 0.00 0.00 0.00 0.00 0.00 0.00 0.00 0.00 0.00 0.00 0.00 0.00 0.00 0.00 0.00
1.49 0.78 0.95 1.02 0.36 0.76 1.19 0.81 0.77 0.50 0.35 0.08 0.00 0.00 0.01 0.00 0.00 0.00 0.01 0.01 0.02 0.01 0.03 0.08 0.01 0.00 0.00 0.00 0.00 0.00 0.00 0.00 0.00 0.00 0.00 0.00 0.00 0.00 0.00 0.00 0.00 0.00 0.00 0.00
0.40 0.46 1.21 0.89 0.71 0.75 0.71 0.36 0.38 0.12 0.12 0.02 0.01 0.01 0.01 0.01 0.01 0.01 0.00 0.01 0.02 0.02 0.04 0.02 0.00 0.00 0.01 0.00 0.00 0.00 0.00 0.00 0.00 0.00 0.00 0.00 0.00 0.00 0.00 0.00 0.00 0.00 0.00 0.00
0.82 0.81 0.78 0.41 0.19 0.15 0.04 0.01 0.00 0.01 0.00 0.00 0.01 0.00 0.00 0.01 0.02 0.01 0.00 0.01 0.02 0.04 0.01 0.00 0.00 0.00 0.00 0.00 0.00 0.00 0.00 0.00 0.00 0.00 0.00 0.00 0.00 0.00 0.00 0.00 0.00 0.00 0.00 0.00
0.54 0.26 0.17 0.11 0.02 0.01 0.00 0.01 0.00 0.00 0.00 0.00 0.01 0.01 0.02 0.01 0.02 0.00 0.03 0.05 0.03 0.00 0.00 0.00 0.00 0.00 0.00 0.00 0.00 0.00 0.00 0.00 0.00 0.00 0.00 0.00 0.00 0.00 0.00 0.00 0.00 0.00 0.00 0.00
0.23 0.07 0.04 0.02 0.02 0.02 0.03 0.03 0.01 0.00 0.00 0.03 0.03 0.05 0.05 0.02 0.01 0.02 0.02 0.01 0.00 0.00 0.00 0.00 0.00 0.00 0.00 0.00 0.00 0.00 0.00 0.00 0.00 0.00 0.00 0.00 0.00 0.00 0.00 0.00 0.00 0.00 0.00 0.00
0.12 0.06 0.01 0.01 0.01 0.00 0.00 0.01 0.00 0.00 0.01 0.02 0.03 0.03 0.03 0.02 0.02 0.00 0.00 0.00 0.00 0.00 0.00 0.00 0.00 0.00 0.00 0.00 0.00 0.00 0.00 0.00 0.00 0.00 0.00 0.00 0.00 0.00 0.00 0.00 0.00 0.00 0.00 0.00

GFSNW_prec_precacc12_252.txt.gz
Total_Precipitation_Accumulation
0.00 0.00 0.00 0.01 0.00 0.00 0.00 0.00 0.00 0.01 0.03 0.10 0.09 0.04 0.01 0.00 0.00 0.00 0.00 0.00 0.00 0.00 0.00 0.00 0.00 0.01 0.05 0.00 0.00 0.00 0.00 0.00 0.00 0.00 0.00 0.01 0.02 0.07 0.09 0.14 0.08 0.05 0.05 0.01
0.00 0.00 0.00 0.02 0.03 0.00 0.00 0.00 0.00 0.04 0.06 0.02 0.03 0.02 0.02 0.01 0.00 0.00 0.00 0.00 0.00 0.00 0.00 0.00 0.00 0.00 0.01 0.00 0.00 0.03 0.03 0.06 0.08 0.07 0.08 0.04 0.04 0.03 0.02 0.02 0.04 0.02 0.05 0.01
0.00 0.00 0.00 0.01 0.04 0.00 0.00 0.00 0.01 0.05 0.13 0.01 0.01 0.02 0.02 0.03 0.00 0.00 0.00 0.00 0.00 0.00 0.00 0.00 0.00 0.01 0.02 0.00 0.00 0.00 0.01 0.03 0.05 0.05 0.05 0.04 0.01 0.00 0.03 0.10 0.13 0.05 0.02 0.00
0.01 0.00 0.00 0.00 0.03 0.02 0.01 0.00 0.00 0.00 0.03 0.02 0.02 0.02 0.02 0.02 0.01 0.00 0.00 0.00 0.00 0.00 0.00 0.00 0.00 0.00 0.00 0.00 0.00 0.00 0.00 0.00 0.00 0.00 0.00 0.00 0.00 0.00 0.00 0.00 0.00 0.02 0.01 0.00
0.02 0.01 0.00 0.01 0.03 0.08 0.05 0.01 0.01 0.00 0.00 0.01 0.01 0.02 0.03 0.01 0.02 0.00 0.00 0.00 0.00 0.00 0.00 0.00 0.00 0.00 0.00 0.01 0.00 0.00 0.00 0.00 0.00 0.00 0.00 0.00 0.00 0.00 0.00 0.00 0.00 0.00 0.00 0.00
0.00 0.00 0.00 0.00 0.01 0.10 0.07 0.01 0.00 0.00 0.00 0.01 0.02 0.01 0.01 0.01 0.01 0.01 0.00 0.00 0.00 0.00 0.00 0.00 0.00 0.00 0.00 0.00 0.00 0.00 0.01 0.01 0.01 0.00 0.00 0.00 0.00 0.00 0.00 0.00 0.00 0.00 0.00 0.00
0.00 0.00 0.00 0.00 0.00 0.05 0.04 0.01 0.00 0.00 0.01 0.00 0.01 0.01 0.00 0.00 0.00 0.01 0.00 0.00 0.01 0.00 0.00 0.00 0.00 0.00 0.00 0.00 0.00 0.00 0.01 0.01 0.02 0.01 0.01 0.01 0.00 0.00 0.00 0.00 0.00 0.00 0.00 0.00
0.00 0.00 0.00 0.00 0.00 0.05 0.10 0.05 0.00 0.00 0.00 0.00 0.00 0.01 0.01 0.00 0.01 0.02 0.01 0.00 0.00 0.00 0.01 0.03 0.02 0.01 0.01 0.00 0.00 0.00 0.00 0.02 0.02 0.02 0.02 0.00 0.00 0.00 0.00 0.00 0.00 0.00 0.00 0.00
0.00 0.00 0.00 0.00 0.00 0.05 0.15 0.07 0.03 0.02 0.01 0.00 0.00 0.00 0.01 0.02 0.01 0.02 0.04 0.01 0.00 0.02 0.05 0.06 0.03 0.01 0.01 0.01 0.00 0.00 0.01 0.02 0.04 0.04 0.05 0.01 0.00 0.00 0.00 0.00 0.00 0.00 0.00 0.00
0.00 0.00 0.00 0.00 0.00 0.03 0.13 0.11 0.04 0.06 0.03 0.00 0.00 0.01 0.01 0.01 0.04 0.04 0.04 0.05 0.04 0.08 0.11 0.11 0.05 0.01 0.00 0.01 0.01 0.00 0.01 0.01 0.03 0.04 0.07 0.01 0.00 0.00 0.00 0.03 0.03 0.00 0.00 0.00
0.00 0.00 0.00 0.00 0.00 0.03 0.10 0.13 0.07 0.02 0.05 0.01 0.00 0.00 0.02 0.03 0.06 0.08 0.04 0.10 0.07 0.10 0.12 0.09 0.05 0.02 0.01 0.00 0.00 0.00 0.00 0.01 0.01 0.02 0.05 0.01 0.00 0.00 0.00 0.01 0.00 0.00 0.00 0.00
0.00 0.00 0.00 0.00 0.01 0.03 0.11 0.15 0.13 0.04 0.06 0.03 0.00 0.00 0.00 0.01 0.03 0.09 0.13 0.07 0.03 0.03 0.05 0.04 0.04 0.02 0.01 0.00 0.01 0.00 0.00 0.00 0.00 0.00 0.00 0.00 0.00 0.01 0.01 0.00 0.00 0.00 0.00 0.01
0.01 0.00 0.00 0.00 0.01 0.02 0.09 0.10 0.19 0.16 0.27 0.13 0.01 0.00 0.00 0.00 0.00 0.01 0.12 0.09 0.09 0.07 0.05 0.08 0.08 0.05 0.02 0.02 0.01 0.00 0.00 0.00 0.00 0.00 0.00 0.00 0.01 0.02 0.01 0.01 0.01 0.02 0.02 0.01
0.03 0.02 0.02 0.01 0.01 0.04 0.13 0.15 0.22 0.25 0.30 0.21 0.08 0.00 0.00 0.00 0.00 0.00 0.02 0.06 0.06 0.08 0.08 0.14 0.09 0.08 0.06 0.04 0.03 0.03 0.02 0.03 0.00 0.01 0.00 0.01 0.01 0.01 0.01 0.01 0.01 0.00 0.01 0.00
0.04 0.03 0.03 0.04 0.04 0.07 0.20 0.22 0.22 0.21 0.14 0.20 0.07 0.00 0.00 0.00 0.00 0.00 0.00 0.03 0.05 0.09 0.08 0.08 0.09 0.09 0.08 0.04 0.02 0.01 0.01 0.01 0.02 0.01 0.00 0.01 0.00 0.00 0.00 0.00 0.00 0.00 0.00 0.00
0.04 0.05 0.06 0.06 0.10 0.22 0.36 0.43 0.28 0.22 0.18 0.20 0.21 0.08 0.00 0.00 0.00 0.00 0.00 0.01 0.02 0.07 0.09 0.07 0.03 0.01 0.03 0.03 0.01 0.00 0.00 0.00 0.00 0.00 0.00 0.00 0.00 0.01 0.00 0.00 0.00 0.00 0.00 0.00
0.05 0.07 0.09 0.11 0.16 0.26 0.27 0.25 0.13 0.13 0.20 0.46 0.42 0.16 0.02 0.00 0.01 0.01 0.00 0.01 0.01 0.03 0.06 0.05 0.04 0.02 0.03 0.04 0.01 0.00 0.00 0.00 0.00 0.00 0.00 0.00 0.02 0.02 0.00 0.00 0.00 0.00 0.00 0.00
0.07 0.10 0.14 0.22 0.43 0.44 0.35 0.17 0.07 0.05 0.21 0.59 0.44 0.22 0.05 0.01 0.01 0.01 0.01 0.01 0.01 0.01 0.01 0.01 0.00 0.00 0.02 0.01 0.00 0.00 0.00 0.00 0.00 0.00 0.00 0.00 0.01 0.01 0.00 0.00 0.00 0.00 0.00 0.00
0.11 0.18 0.37 0.58 0.74 0.57 0.31 0.22 0.27 0.20 0.23 0.59 0.36 0.06 0.04 0.01 0.01 0.01 0.01 0.03 0.02 0.01 0.01 0.00 0.00 0.00 0.00 0.00 0.00 0.00 0.00 0.00 0.00 0.00 0.00 0.00 0.00 0.00 0.00 0.00 0.00 0.00 0.00 0.00
0.31 0.61 1.12 1.53 0.87 0.29 0.25 0.52 1.07 1.16 0.71 0.22 0.10 0.01 0.03 0.01 0.01 0.01 0.01 0.02 0.02 0.03 0.01 0.00 0.01 0.00 0.00 0.00 0.00 0.00 0.00 0.00 0.00 0.00 0.00 0.00 0.00 0.00 0.00 0.00 0.00 0.00 0.00 0.00
1.14 1.57 1.30 0.71 0.21 0.31 0.43 1.10 1.17 1.53 1.13 0.32 0.01 0.02 0.02 0.00 0.01 0.01 0.01 0.02 0.03 0.03 0.01 0.01 0.01 0.00 0.00 0.00 0.00 0.00 0.00 0.00 0.00 0.00 0.00 0.00 0.00 0.00 0.00 0.00 0.00 0.00 0.00 0.00
1.27 0.66 0.67 0.88 0.31 0.67 1.19 0.78 0.72 0.57 0.47 0.09 0.00 0.01 0.02 0.01 0.01 0.01 0.01 0.02 0.02 0.02 0.04 0.08 0.01 0.00 0.00 0.00 0.00 0.00 0.00 0.00 0.00 0.00 0.00 0.00 0.00 0.00 0.00 0.00 0.00 0.00 0.00 0.00
0.41 0.46 1.05 1.08 0.64 0.73 0.77 0.32 0.45 0.12 0.12 0.02 0.01 0.04 0.03 0.04 0.05 0.06 0.01 0.02 0.03 0.03 0.05 0.03 0.00 0.00 0.00 0.00 0.00 0.00 0.00 0.00 0.00 0.00 0.00 0.00 0.00 0.00 0.00 0.00 0.00 0.00 0.00 0.00
0.83 0.78 0.89 0.45 0.39 0.15 0.05 0.01 0.00 0.01 0.00 0.00 0.01 0.01 0.01 0.02 0.05 0.04 0.03 0.02 0.04 0.04 0.01 0.00 0.00 0.00 0.00 0.00 0.00 0.00 0.00 0.00 0.00 0.00 0.00 0.00 0.00 0.00 0.00 0.00 0.00 0.00 0.00 0.00
0.64 0.31 0.31 0.17 0.06 0.01 0.00 0.01 0.00 0.00 0.00 0.00 0.02 0.03 0.04 0.05 0.04 0.03 0.05 0.08 0.05 0.00 0.00 0.00 0.00 0.00 0.00 0.00 0.00 0.00 0.00 0.00 0.00 0.00 0.00 0.00 0.00 0.00 0.00 0.00 0.00 0.00 0.00 0.00
0.38 0.22 0.05 0.05 0.06 0.05 0.04 0.04 0.01 0.00 0.01 0.05 0.06 0.09 0.13 0.08 0.05 0.04 0.04 0.04 0.01 0.00 0.00 0.00 0.00 0.00 0.00 0.00 0.00 0.00 0.00 0.00 0.00 0.00 0.00 0.00 0.00 0.00 0.00 0.00 0.00 0.00 0.00 0.00
0.23 0.16 0.03 0.03 0.05 0.04 0.02 0.02 0.01 0.01 0.05 0.05 0.07 0.07 0.09 0.04 0.05 0.02 0.00 0.00 0.00 0.00 0.00 0.00 0.00 0.00 0.00 0.00 0.00 0.00 0.00 0.00 0.00 0.00 0.00 0.00 0.00 0.00 0.00 0.00 0.00 0.00 0.00 0.00

GFSNW_prec_precacc12_255.txt.gz
Total_Precipitation_Accumulation
0.00 0.00 0.00 0.00 0.00 0.00 0.00 0.00 0.00 0.05 0.03 0.10 0.08 0.02 0.01 0.00 0.00 0.00 0.00 0.00 0.00 0.00 0.00 0.00 0.00 0.01 0.05 0.01 0.00 0.00 0.00 0.00 0.00 0.00 0.00 0.00 0.00 0.01 0.02 0.09 0.06 0.05 0.06 0.01
0.00 0.00 0.00 0.01 0.01 0.00 0.00 0.00 0.00 0.09 0.07 0.02 0.04 0.01 0.01 0.01 0.00 0.00 0.00 0.00 0.00 0.00 0.00 0.00 0.00 0.01 0.01 0.00 0.00 0.03 0.03 0.06 0.08 0.07 0.08 0.04 0.03 0.01 0.00 0.00 0.01 0.01 0.04 0.01
0.00 0.00 0.00 0.00 0.02 0.00 0.00 0.00 0.01 0.05 0.10 0.00 0.00 0.01 0.02 0.02 0.00 0.00 0.00 0.00 0.00 0.00 0.00 0.00 0.00 0.01 0.02 0.00 0.00 0.00 0.00 0.02 0.04 0.05 0.05 0.04 0.01 0.00 0.00 0.01 0.02 0.02 0.01 0.00
0.00 0.00 0.00 0.00 0.01 0.01 0.01 0.01 0.00 0.00 0.03 0.01 0.00 0.01 0.01 0.01 0.01 0.00 0.00 0.00 0.00 0.00 0.01 0.02 0.01 0.01 0.01 0.01 0.00 0.00 0.00 0.00 0.00 0.00 0.00 0.00 0.00 0.00 0.00 0.00 0.00 0.01 0.00 0.00
0.01 0.01 0.00 0.01 0.00 0.04 0.04 0.02 0.01 0.00 0.00 0.00 0.00 0.01 0.01 0.01 0.01 0.00 0.00 0.00 0.00 0.00 0.00 0.00 0.01 0.01 0.01 0.01 0.01 0.00 0.00 0.00 0.00 0.00 0.00 0.00 0.00 0.00 0.00 0.00 0.00 0.00 0.00 0.00
0.00 0.00 0.00 0.00 0.01 0.07 0.06 0.01 0.00 0.00 0.00 0.01 0.01 0.00 0.00 0.00 0.00 0.01 0.00 0.00 0.00 0.01 0.00 0.00 0.00 0.00 0.00 0.00 0.00 0.00 0.01 0.01 0.01 0.00 0.00 0.00 0.00 0.00 0.00 0.00 0.00 0.00 0.00 0.00
0.00 0.00 0.00 0.00 0.00 0.03 0.04 0.01 0.00 0.00 0.01 0.00 0.01 0.00 0.00 0.00 0.00 0.01 0.00 0.00 0.01 0.00 0.00 0.00 0.00 0.00 0.00 0.00 0.00 0.00 0.01 0.01 0.03 0.01 0.01 0.01 0.00 0.00 0.00 0.00 0.00 0.00 0.00 0.00
0.00 0.00 0.00 0.00 0.00 0.02 0.10 0.06 0.01 0.00 0.00 0.00 0.00 0.01 0.00 0.00 0.01 0.02 0.01 0.00 0.01 0.00 0.01 0.03 0.02 0.01 0.02 0.00 0.00 0.00 0.00 0.02 0.02 0.02 0.01 0.00 0.00 0.00 0.00 0.00 0.00 0.00 0.00 0.00
0.00 0.00 0.00 0.00 0.00 0.02 0.11 0.09 0.06 0.04 0.01 0.00 0.00 0.00 0.01 0.02 0.01 0.02 0.04 0.02 0.00 0.04 0.08 0.07 0.04 0.02 0.01 0.01 0.00 0.00 0.00 0.02 0.03 0.03 0.03 0.00 0.00 0.00 0.00 0.00 0.00 0.00 0.00 0.00
0.00 0.00 0.00 0.00 0.00 0.01 0.07 0.10 0.07 0.10 0.04 0.00 0.00 0.00 0.01 0.01 0.04 0.04 0.04 0.06 0.05 0.09 0.12 0.12 0.04 0.01 0.00 0.01 0.01 0.00 0.01 0.00 0.03 0.04 0.06 0.00 0.00 0.00 0.00 0.01 0.02 0.00 0.00 0.00
0.00 0.00 0.00 0.00 0.00 0.02 0.04 0.07 0.07 0.04 0.07 0.02 0.00 0.00 0.01 0.03 0.05 0.08 0.05 0.11 0.08 0.11 0.12 0.09 0.04 0.03 0.01 0.00 0.00 0.00 0.00 0.01 0.01 0.01 0.05 0.01 0.00 0.00 0.00 0.01 0.00 0.00 0.00 0.00
0.00 0.00 0.00 0.00 0.01 0.03 0.05 0.06 0.08 0.04 0.07 0.03 0.00 0.00 0.00 0.01 0.03 0.07 0.13 0.08 0.04 0.04 0.06 0.04 0.04 0.02 0.01 0.00 0.01 0.00 0.00 0.00 0.00 0.00 0.00 0.00 0.00 0.00 0.00 0.00 0.00 0.00 0.00 0.00
0.01 0.01 0.00 0.00 0.01 0.02 0.05 0.05 0.11 0.11 0.20 0.09 0.00 0.00 0.00 0.00 0.00 0.01 0.11 0.11 0.12 0.10 0.09 0.10 0.08 0.05 0.02 0.02 0.01 0.00 0.00 0.00 0.00 0.01 0.00 0.00 0.00 0.00 0.00 0.00 0.00 0.00 0.00 0.00
0.02 0.01 0.02 0.02 0.02 0.05 0.07 0.09 0.13 0.16 0.19 0.15 0.05 0.00 0.00 0.00 0.00 0.00 0.02 0.08 0.08 0.09 0.09 0.16 0.10 0.06 0.03 0.03 0.03 0.03 0.02 0.02 0.00 0.01 0.00 0.00 0.00 0.00 0.00 0.00 0.00 0.00 0.00 0.00
0.02 0.02 0.03 0.05 0.06 0.11 0.16 0.16 0.15 0.14 0.10 0.16 0.06 0.00 0.00 0.00 0.00 0.00 0.00 0.03 0.10 0.13 0.11 0.09 0.07 0.07 0.07 0.04 0.02 0.01 0.01 0.01 0.03 0.01 0.00 0.00 0.00 0.00 0.00 0.00 0.00 0.00 0.00 0.00
0.04 0.03 0.04 0.07 0.11 0.21 0.25 0.22 0.13 0.18 0.17 0.19 0.20 0.07 0.00 0.00 0.00 0.00 0.00 0.01 0.02 0.07 0.09 0.08 0.04 0.01 0.03 0.04 0.02 0.00 0.00 0.00 0.00 0.00 0.00 0.00 0.00 0.00 0.00 0.00 0.00 0.00 0.00 0.00
0.05 0.07 0.07 0.08 0.14 0.19 0.10 0.04 0.02 0.10 0.20 0.42 0.39 0.14 0.02 0.00 0.01 0.01 0.00 0.01 0.01 0.02 0.04 0.02 0.02 0.01 0.02 0.03 0.01 0.00 0.00 0.00 0.00 0.00 0.00 0.00 0.00 0.00 0.00 0.00 0.00 0.00 0.00 0.00
0.07 0.10 0.13 0.17 0.34 0.35 0.17 0.09 0.07 0.05 0.17 0.45 0.45 0.19 0.04 0.01 0.02 0.02 0.01 0.01 0.01 0.01 0.01 0.01 0.00 0.00 0.02 0.01 0.00 0.00 0.00 0.00 0.00 0.00 0.00 0.00 0.00 0.00 0.00 0.00 0.00 0.00 0.00 0.00
0.14 0.20 0.37 0.54 0.54 0.22 0.07 0.16 0.32 0.22 0.14 0.44 0.38 0.09 0.04 0.01 0.02 0.04 0.04 0.04 0.03 0.02 0.01 0.00 0.00 0.00 0.00 0.00 0.00 0.00 0.00 0.00 0.00 0.00 0.00 0.00 0.00 0.00 0.00 0.00 0.00 0.00 0.00 0.00
0.33 0.65 0.98 1.09 0.43 0.09 0.17 0.39 0.83 1.01 0.68 0.21 0.10 0.02 0.03 0.01 0.01 0.04 0.06 0.07 0.05 0.05 0.01 0.00 0.01 0.00 0.00 0.00 0.00 0.00 0.00 0.00 0.00 0.00 0.00 0.00 0.00 0.00 0.00 0.00 0.00 0.00 0.00 0.00
0.99 1.31 0.93 0.44 0.13 0.30 0.37 0.77 0.77 1.22 0.99 0.33 0.01 0.02 0.02 0.00 0.01 0.02 0.02 0.05 0.05 0.04 0.00 0.00 0.00 0.00 0.00 0.00 0.00 0.00 0.00 0.00 0.00 0.00 0.00 0.00 0.00 0.00 0.00 0.00 0.00 0.00 0.00 0.00
1.09 0.54 0.45 0.66 0.30 0.54 1.07 0.64 0.56 0.43 0.42 0.09 0.00 0.01 0.02 0.01 0.02 0.01 0.01 0.02 0.03 0.01 0.04 0.06 0.00 0.00 0.00 0.00 0.00 0.00 0.00 0.00 0.00 0.00 0.00 0.00 0.00 0.00 0.00 0.00 0.00 0.00 0.00 0.00
0.38 0.40 0.76 0.94 0.57 0.62 0.71 0.28 0.43 0.12 0.11 0.01 0.01 0.05 0.05 0.06 0.07 0.07 0.03 0.03 0.04 0.03 0.03 0.02 0.00 0.00 0.00 0.00 0.00 0.00 0.00 0.00 0.00 0.00 0.00 0.00 0.00 0.00 0.00 0.00 0.00 0.00 0.00 0.00
0.67 0.70 0.83 0.50 0.52 0.14 0.05 0.02 0.00 0.01 0.00 0.00 0.01 0.02 0.02 0.03 0.07 0.06 0.04 0.03 0.04 0.02 0.00 0.00 0.00 0.00 0.00 0.00 0.00 0.00 0.00 0.00 0.00 0.00 0.00 0.00 0.00 0.00 0.00 0.00 0.00 0.00 0.00 0.00
0.60 0.32 0.36 0.17 0.11 0.01 0.00 0.01 0.00 0.00 0.00 0.00 0.03 0.04 0.05 0.06 0.05 0.05 0.07 0.09 0.05 0.00 0.00 0.00 0.00 0.00 0.00 0.00 0.00 0.00 0.00 0.00 0.00 0.00 0.00 0.00 0.00 0.00 0.00 0.00 0.00 0.00 0.00 0.00
0.45 0.23 0.06 0.05 0.07 0.05 0.04 0.04 0.01 0.00 0.01 0.07 0.10 0.12 0.16 0.10 0.06 0.05 0.04 0.05 0.01 0.00 0.00 0.00 0.00 0.00 0.00 0.00 0.00 0.00 0.00 0.00 0.00 0.00 0.00 0.00 0.00 0.00 0.00 0.00 0.00 0.00 0.00 0.00
0.43 0.20 0.03 0.03 0.05 0.04 0.02 0.02 0.01 0.01 0.07 0.08 0.09 0.10 0.11 0.06 0.06 0.03 0.00 0.00 0.00 0.00 0.00 0.00 0.00 0.00 0.00 0.00 0.00 0.00 0.00 0.00 0.00 0.00 0.00 0.00 0.00 0.00 0.00 0.00 0.00 0.00 0.00 0.00